Regional Weather Roundup
Issued by NWS Wilmington, NC

Home | Current Version | Previous Version | Text Only | Print | Product List | Glossary On
Versions: 1 2 3 4 5 6 7 8 9 10 11 12 13 14 15 16 17 18 19 20 21 22 23 24 25 26 27 28 29 30 31 32 33 34 35 36 37 38 39 40 41 42 43 44 45 46 47 48 49 50
000
ASUS42 KILM 300513
RWRILM
RWRILM
REGIONAL HOURLY WEATHER ROUNDUP
NATIONAL WEATHER SERVICE WILMINGTON NC
100 AM EDT TUE JUN 30 2015

NOTE: "FAIR" INDICATES FEW OR NO CLOUDS BELOW 12,000 FEET WITH NO
SIGNIFICANT WEATHER AND/OR OBSTRUCTIONS TO VISIBILITY.

...............WFO WILMINGTON COUNTY WARNING AREA...............

......COASTAL NC AND SC COUNTIES......

CITY           SKY/WX    TMP DP  RH WIND       PRES   REMARKS
WILMINGTON     CLEAR     76  70  82 S6        29.98S
N MYRTLE BEACH PTCLDY    78  68  71 SW7       29.98S
MYRTLE BEACH   CLEAR     79  66  65 SW7       30.00S

......INLAND NC AND SC COUNTIES.......

CITY           SKY/WX    TMP DP  RH WIND       PRES   REMARKS
LUMBERTON      CLEAR     71  65  81 CALM      29.96S
ELIZABETHTOWN  CLEAR     73  69  86 S3        29.97S
WHITEVILLE     CLEAR     74  69  83 SW3       29.97S
FLORENCE       CLEAR     73  62  68 CALM      29.97R
DARLINGTON     CLEAR     72  63  73 SW5       29.98R

....................REST OF NORTH CAROLINA......................

.........EASTERN NC.........

CITY           SKY/WX    TMP DP  RH WIND       PRES   REMARKS
CAPE HATTERAS  PTCLDY    77  73  87 W6        29.98F
JACKSONVILLE   CLEAR     70  64  83 S3        29.98F
MOREHEAD CITY  PTCLDY    78  74  87 SW8       29.98F
KENANSVILLE    CLEAR     69  68  95 CALM      29.98S
NEW BERN       CLEAR     74  71  91 SW7       29.99S
ELIZABETH CITY PTCLDY    75  71  87 SE7       29.97S

.........CENTRAL NC.........

CITY           SKY/WX    TMP DP  RH WIND       PRES   REMARKS
RALEIGH DURHAM PTCLDY    74  66  76 S5        29.95F
ROCKY MOUNT    CLEAR     72  67  84 S3        29.95F
ROANOKE RAPIDS NOT AVBL
FAYETTEVILLE   CLEAR     72  64  76 S5        29.95F
HOFFMAN        CLEAR     71  63  78 SW3       29.99S

.........WESTERN NC.........

CITY           SKY/WX    TMP DP  RH WIND       PRES   REMARKS
CHARLOTTE      PTCLDY    73  59  61 CALM      29.97F
GREENSBORO     PTCLDY    72  60  66 SW6       29.95F
HICKORY        NOT AVBL
BOONE          NOT AVBL
ASHEVILLE      NOT AVBL

.....................REST OF SOUTH CAROLINA.....................

.........EASTERN SC.........

CITY           SKY/WX    TMP DP  RH WIND       PRES   REMARKS
CHARLESTON     CLEAR     76  72  87 SW7       30.00R
BEAUFORT MCAS  CLEAR     77  70  79 CALM      30.01S
HILTON HEAD    CLEAR     77  75  94 S3        30.03R

.........CENTRAL SC.........

CITY           SKY/WX    TMP DP  RH WIND       PRES   REMARKS
COLUMBIA       CLEAR     72  64  76 CALM      29.97F
ORANGEBURG     CLEAR     71  62  73 S5        29.99S
SUMTER SHAW    CLEAR     76  59  56 SW7       29.95F

.........WESTERN SC.........

CITY           SKY/WX    TMP DP  RH WIND       PRES   REMARKS
GREENVILLE     NOT AVBL
ROCK HILL      CLEAR     69  61  75 SW3       29.97F
ANDERSON       CLEAR     73  62  68 SW5       30.00R
CLEMSON        NOT AVBL
GREENWOOD      CLEAR     73  62  68 SW7       30.01S


...................COASTAL AND OFFSHORE REPORTS..................

................LOCAL PIERS AND NC RESERVE................


STATION/POSITION TIME  SKY/WX   TEMP    WIND        PRES    VSBY
                                AIR SEA DIR/SP/G
                 (UTC)          (F)     (DEG/KT/KT) (MB)    (MI)
JOHNY MRCER PIER 0400            79 82  210/ 10/ 12 1014.8R
NC RESRV MASNBRO NOT AVBL
OCEAN CREST PIER NOT AVBL
SPRINGMAID  PIER 0400            79 84  210/ 10/ 11 1015.3S


................COASTAL AND OFFSHORE BUOYS................


STATION/POSITION TIME  SKY/WX   TEMP    WIND        PRES    VSBY
                                AIR SEA DIR/SP/G
                 (UTC)          (F)     (DEG/KT/KT) (MB)    (MI)
DIMNDSHOAL 41025 0450            79 80  250/ 12/ 14 1015.2F
WVE H/P(F/S)=  4/ 8 WND WVE H/P(F/S)=  2/ 5 SWL H/P/D(F/S/D)=  3/160/ 8

CAPE LOOKOUT     0500            79     230/  6/  9 1015.0F
ONSLOW BAY 41036 NOT AVBL
5 WRITEBCH 41038 0408            80 79  230/ 12/ 16 1015.4R
MASONBORO  41110 0419               79                N/A
WVE H/P(F/S)=  3/ 7 WND WVE H/P(F/S)=  3/ 7

WILM HARBR 41108 0411               81                N/A
WVE H/P(F/S)=  4/ 5 WND WVE H/P(F/S)=  3/ 5

27WRITEBCH 41037 0400               81  240/ 12/ 16   N/A
FRYING PAN 41013 0450            82 80  230/ 14/ 16 1015.9R
WVE H/P(F/S)=  4/ 7 WND WVE H/P(F/S)=  3/ 6 SWL H/P/D(F/S/D)=  3/150/ 7

SUNST NRSH 41024 0408            81     240/ 16/ 21 1014.9R
CAPRS NRSH 41029 0408            81     230/ 16/ 21 1016.1R
EDISTO     41004 0450            81 83  230/ 16/ 17 1015.5R
WVE H/P(F/S)=  4/ 7 WND WVE H/P(F/S)=  3/ 4 SWL H/P/D(F/S/D)=  3/ 7



..........OFFSHORE BUOYS BEYOND 100 NM OFFSHORE...........
.....IN A TRIANGLE---HAT TO BERMUDA TO BAHAMAS TO HAT.....


STATION/POSITION TIME  SKY/WX   TEMP    WIND        PRES    VSBY
                                AIR SEA DIR/SP/G
                 (UTC)          (F)     (DEG/KT/KT) (MB)    (MI)
150E HAT   41001 NOT AVBL
W BERMUDA  41048 0450            81 81  170/ 14/ 17 1020.4F
WVE H/P(F/S)=  5/ 8 WND WVE H/P(F/S)=  3/ 6 SWL H/P/D(F/S/D)=  3/280/ 8

ATLANTIC S 41049 0450            81 83  130/ 10/ 12 1024.9F
WVE H/P(F/S)=  3/ 8 WND WVE H/P(F/S)=  2/ 4 SWL H/P/D(F/S/D)=  3/130/ 8

E BAHAMAS  41046 0450            82 83  100/ 14/ 16 1022.6S
WVE H/P(F/S)=  5/ 8 WND WVE H/P(F/S)=  3/ 5 SWL H/P/D(F/S/D)=  3/120/ 8

NE BAHAMAS 41047 0450            79 83  290/  8/ 10 1022.8F
WVE H/P(F/S)=  5/ 5 WND WVE H/P(F/S)=  2/ 4 SWL H/P/D(F/S/D)=  5/270/ 5

120E CANVRL41010 0420            81 84  240/ 12/ 16 1018.6R

END


USA.gov is the U.S. government's official web portal to all federal, state and local government web resources and services.